contact:dominique.lefevre@mio.osupytheas.fr, maurice.libes@osupytheas.fr, didier.mallarino@osupytheas.fr
Project:EMSO http://www.emso-fr.org/EMSO-France
Depth: 2436.0 m
Title:EMSO Ligure Ouest : Data MII capteur CSTAR
DateTime,Latitude,Longitude,Instrument_Serial,Reference_Counts,Signal_Counts,Corrected_Signal_raw_counts,Calculated_Beam_c_inverse_meters,Internal_thermistor_counts
DateTime,Latitude,Longitude,Instrument_Serial,Reference_Counts,Signal_Counts,Corrected_Signal_raw_counts,Calculated_Beam_c_inverse_meters,Internal_thermistor_counts
2020-06-18T00:00:06,42.805,6.029,CST-1368DR,6181,8662,15146,0.122,551
2020-06-18T00:03:08,42.805,6.029,CST-1368DR,6181,8663,15147,0.122,551
2020-06-18T00:06:10,42.805,6.029,CST-1368DR,6181,8663,15147,0.122,551
2020-06-18T00:09:11,42.805,6.029,CST-1368DR,6181,8662,15146,0.122,551
2020-06-18T00:12:13,42.805,6.029,CST-1368DR,6181,8663,15148,0.122,551
2020-06-18T00:15:15,42.805,6.029,CST-1368DR,6181,8662,15146,0.122,551
2020-06-18T00:18:17,42.805,6.029,CST-1368DR,6181,8662,15146,0.122,551
2020-06-18T00:21:18,42.805,6.029,CST-1368DR,6181,8661,15144,0.123,551
2020-06-18T00:24:20,42.805,6.029,CST-1368DR,6181,8662,15146,0.122,551
2020-06-18T00:27:22,42.805,6.029,CST-1368DR,6181,8663,15147,0.122,551
2020-06-18T00:30:24,42.805,6.029,CST-1368DR,6181,8663,15147,0.122,551
2020-06-18T00:33:25,42.805,6.029,CST-1368DR,6181,8663,15148,0.122,551
2020-06-18T00:36:27,42.805,6.029,CST-1368DR,6181,8664,15148,0.122,551
2020-06-18T00:39:29,42.805,6.029,CST-1368DR,6181,8662,15146,0.122,551
2020-06-18T00:43:38,42.805,6.029,CST-1368DR,6181,8662,15146,0.122,551
2020-06-18T00:46:09,42.805,6.029,CST-1368DR,6181,8662,15146,0.122,551
2020-06-18T00:48:36,42.805,6.029,CST-1368DR,6181,8663,15147,0.122,551
2020-06-18T00:51:38,42.805,6.029,CST-1368DR,6181,8664,15148,0.122,551
2020-06-18T00:54:39,42.805,6.029,CST-1368DR,6181,8662,15146,0.122,551
2020-06-18T01:09:31,42.805,6.029,CST-1368DR,6181,8662,15146,0.122,551
2020-06-18T01:18:30,42.805,6.029,CST-1368DR,6181,8663,15148,0.122,551
2020-06-18T01:20:30,42.805,6.029,CST-1368DR,6181,8664,15148,0.122,551
2020-06-18T01:24:38,42.805,6.029,CST-1368DR,6181,8664,15148,0.122,551
2020-06-18T01:30:07,42.805,6.029,CST-1368DR,6181,8663,15148,0.122,551
2020-06-18T01:36:36,42.805,6.029,CST-1368DR,6181,8663,15148,0.122,551
2020-06-18T01:40:36,42.805,6.029,CST-1368DR,6181,8664,15149,0.121,551
2020-06-18T02:22:42,42.805,6.029,CST-1368DR,6181,8664,15149,0.121,551
2020-06-18T02:25:44,42.805,6.029,CST-1368DR,6181,8664,15150,0.121,551
2020-06-18T02:28:45,42.805,6.029,CST-1368DR,6181,8663,15148,0.122,551
2020-06-18T02:31:47,42.805,6.029,CST-1368DR,6181,8663,15147,0.122,551
2020-06-18T02:34:49,42.805,6.029,CST-1368DR,6181,8664,15149,0.121,551
2020-06-18T02:37:51,42.805,6.029,CST-1368DR,6181,8664,15149,0.121,551
2020-06-18T02:40:52,42.805,6.029,CST-1368DR,6181,8664,15148,0.122,551
2020-06-18T02:43:54,42.805,6.029,CST-1368DR,6181,8662,15146,0.122,551
2020-06-18T02:46:56,42.805,6.029,CST-1368DR,6181,8664,15150,0.121,551
2020-06-18T02:49:58,42.805,6.029,CST-1368DR,6181,8664,15149,0.121,551
2020-06-18T02:52:59,42.805,6.029,CST-1368DR,6181,8664,15150,0.121,551
2020-06-18T02:56:01,42.805,6.029,CST-1368DR,6181,8662,15146,0.122,551
2020-06-18T02:59:03,42.805,6.029,CST-1368DR,6181,8664,15149,0.121,551
2020-06-18T03:02:04,42.805,6.029,CST-1368DR,6181,8664,15149,0.121,551
2020-06-18T03:05:06,42.805,6.029,CST-1368DR,6181,8664,15149,0.121,551
2020-06-18T03:08:08,42.805,6.029,CST-1368DR,6181,8663,15148,0.122,551
2020-06-18T03:11:09,42.805,6.029,CST-1368DR,6181,8664,15149,0.121,550
2020-06-18T03:14:11,42.805,6.029,CST-1368DR,6181,8664,15149,0.121,550
2020-06-18T03:17:13,42.805,6.029,CST-1368DR,6181,8663,15147,0.122,551
2020-06-18T03:20:14,42.805,6.029,CST-1368DR,6181,8662,15146,0.122,550
2020-06-18T03:23:16,42.805,6.029,CST-1368DR,6181,8664,15149,0.121,551
2020-06-18T03:26:18,42.805,6.029,CST-1368DR,6181,8662,15146,0.122,551
2020-06-18T03:29:19,42.805,6.029,CST-1368DR,6181,8663,15147,0.122,551
2020-06-18T03:32:21,42.805,6.029,CST-1368DR,6181,8662,15145,0.123,551
2020-06-18T03:35:23,42.805,6.029,CST-1368DR,6181,8663,15148,0.122,551
2020-06-18T03:38:25,42.805,6.029,CST-1368DR,6181,8663,15148,0.122,551
2020-06-18T03:41:26,42.805,6.029,CST-1368DR,6181,8663,15148,0.122,551
2020-06-18T03:44:28,42.805,6.029,CST-1368DR,6181,8662,15146,0.122,551
2020-06-18T03:47:30,42.805,6.029,CST-1368DR,6181,8663,15148,0.122,551
2020-06-18T03:50:31,42.805,6.029,CST-1368DR,6181,8663,15147,0.122,551
2020-06-18T03:53:33,42.805,6.029,CST-1368DR,6181,8663,15147,0.122,551
2020-06-18T03:56:35,42.805,6.029,CST-1368DR,6181,8663,15147,0.122,551
2020-06-18T03:59:36,42.805,6.029,CST-1368DR,6181,8664,15150,0.121,551
2020-06-18T04:02:38,42.805,6.029,CST-1368DR,6181,8663,15148,0.122,551
2020-06-18T04:05:40,42.805,6.029,CST-1368DR,6181,8664,15149,0.121,551
2020-06-18T04:08:41,42.805,6.029,CST-1368DR,6181,8663,15148,0.122,551
2020-06-18T04:11:43,42.805,6.029,CST-1368DR,6181,8662,15145,0.123,551
2020-06-18T04:14:45,42.805,6.029,CST-1368DR,6181,8664,15149,0.121,551
2020-06-18T04:17:46,42.805,6.029,CST-1368DR,6181,8664,15148,0.122,551
2020-06-18T04:20:48,42.805,6.029,CST-1368DR,6181,8664,15148,0.122,551
2020-06-18T04:23:50,42.805,6.029,CST-1368DR,6181,8663,15147,0.122,551
2020-06-18T04:26:52,42.805,6.029,CST-1368DR,6181,8663,15147,0.122,551
2020-06-18T04:29:53,42.805,6.029,CST-1368DR,6181,8663,15147,0.122,551
2020-06-18T04:32:55,42.805,6.029,CST-1368DR,6181,8664,15149,0.121,551
2020-06-18T04:35:57,42.805,6.029,CST-1368DR,6181,8663,15148,0.122,551
2020-06-18T04:38:58,42.805,6.029,CST-1368DR,6181,8663,15147,0.122,551
2020-06-18T04:42:00,42.805,6.029,CST-1368DR,6181,8663,15147,0.122,551
2020-06-18T04:45:02,42.805,6.029,CST-1368DR,6181,8662,15146,0.122,551
2020-06-18T04:48:03,42.805,6.029,CST-1368DR,6181,8664,15148,0.122,551
2020-06-18T04:51:05,42.805,6.029,CST-1368DR,6181,8663,15148,0.122,550
2020-06-18T04:54:07,42.805,6.029,CST-1368DR,6181,8663,15147,0.122,551
2020-06-18T04:57:09,42.805,6.029,CST-1368DR,6181,8662,15146,0.122,551
2020-06-18T05:00:10,42.805,6.029,CST-1368DR,6181,8663,15147,0.122,551
2020-06-18T05:03:12,42.805,6.029,CST-1368DR,6181,8663,15147,0.122,551
2020-06-18T05:06:14,42.805,6.029,CST-1368DR,6181,8662,15146,0.122,551
2020-06-18T05:09:15,42.805,6.029,CST-1368DR,6181,8662,15146,0.122,551
2020-06-18T05:12:17,42.805,6.029,CST-1368DR,6181,8662,15146,0.122,551
2020-06-18T05:15:19,42.805,6.029,CST-1368DR,6181,8663,15148,0.122,551
2020-06-18T05:18:20,42.805,6.029,CST-1368DR,6181,8663,15147,0.122,551
2020-06-18T05:21:22,42.805,6.029,CST-1368DR,6181,8661,15143,0.123,551
2020-06-18T05:24:24,42.805,6.029,CST-1368DR,6181,8662,15146,0.122,551
2020-06-18T05:27:25,42.805,6.029,CST-1368DR,6181,8663,15148,0.122,551
2020-06-18T05:30:27,42.805,6.029,CST-1368DR,6181,8662,15146,0.122,551
2020-06-18T05:33:29,42.805,6.029,CST-1368DR,6181,8663,15147,0.122,551
2020-06-18T05:36:30,42.805,6.029,CST-1368DR,6181,8663,15148,0.122,551
2020-06-18T05:39:32,42.805,6.029,CST-1368DR,6181,8663,15147,0.122,551
2020-06-18T05:42:34,42.805,6.029,CST-1368DR,6181,8662,15145,0.123,551
2020-06-18T05:45:35,42.805,6.029,CST-1368DR,6181,8663,15147,0.122,551
2020-06-18T05:48:37,42.805,6.029,CST-1368DR,6181,8662,15145,0.123,551
2020-06-18T05:51:39,42.805,6.029,CST-1368DR,6181,8663,15147,0.122,551
2020-06-18T05:54:40,42.805,6.029,CST-1368DR,6181,8663,15147,0.122,551
2020-06-18T05:57:42,42.805,6.029,CST-1368DR,6181,8661,15143,0.123,550
2020-06-18T06:00:44,42.805,6.029,CST-1368DR,6180,8661,15147,0.122,551
2020-06-18T06:03:45,42.805,6.029,CST-1368DR,6180,8662,15148,0.122,551
2020-06-18T06:06:47,42.805,6.029,CST-1368DR,6181,8663,15147,0.122,551
2020-06-18T06:09:49,42.805,6.029,CST-1368DR,6181,8662,15145,0.123,551
2020-06-18T06:12:50,42.805,6.029,CST-1368DR,6180,8663,15149,0.121,551
2020-06-18T06:15:52,42.805,6.029,CST-1368DR,6181,8663,15148,0.122,551
2020-06-18T06:18:54,42.805,6.029,CST-1368DR,6181,8663,15148,0.122,551
2020-06-18T06:21:55,42.805,6.029,CST-1368DR,6181,8664,15148,0.122,551
2020-06-18T06:24:57,42.805,6.029,CST-1368DR,6180,8661,15147,0.122,551
2020-06-18T06:27:59,42.805,6.029,CST-1368DR,6180,8663,15150,0.121,551
2020-06-18T06:31:00,42.805,6.029,CST-1368DR,6180,8662,15148,0.122,551
2020-06-18T06:34:02,42.805,6.029,CST-1368DR,6180,8663,15150,0.121,551
2020-06-18T06:37:04,42.805,6.029,CST-1368DR,6180,8662,15147,0.122,551
2020-06-18T06:40:06,42.805,6.029,CST-1368DR,6180,8661,15147,0.122,551
2020-06-18T06:43:07,42.805,6.029,CST-1368DR,6180,8662,15148,0.122,551
2020-06-18T06:46:09,42.805,6.029,CST-1368DR,6180,8663,15149,0.121,550
2020-06-18T06:49:11,42.805,6.029,CST-1368DR,6180,8663,15149,0.121,551
2020-06-18T06:52:13,42.805,6.029,CST-1368DR,6180,8663,15149,0.121,551
2020-06-18T06:55:14,42.805,6.029,CST-1368DR,6180,8662,15148,0.122,551
2020-06-18T06:58:16,42.805,6.029,CST-1368DR,6180,8663,15150,0.121,551
2020-06-18T07:01:18,42.805,6.029,CST-1368DR,6180,8663,15150,0.121,550
2020-06-18T07:04:20,42.805,6.029,CST-1368DR,6180,8662,15148,0.122,551
2020-06-18T07:07:21,42.805,6.029,CST-1368DR,6180,8661,15147,0.122,551
2020-06-18T07:10:23,42.805,6.029,CST-1368DR,6180,8662,15147,0.122,551
2020-06-18T07:13:25,42.805,6.029,CST-1368DR,6180,8662,15149,0.121,551
2020-06-18T07:16:26,42.805,6.029,CST-1368DR,6180,8661,15146,0.122,551
2020-06-18T07:19:28,42.805,6.029,CST-1368DR,6180,8659,15143,0.123,551
2020-06-18T07:22:30,42.805,6.029,CST-1368DR,6180,8662,15149,0.121,551
2020-06-18T07:25:31,42.805,6.029,CST-1368DR,6180,8662,15148,0.122,551
2020-06-18T07:28:33,42.805,6.029,CST-1368DR,6180,8663,15149,0.121,551
2020-06-18T07:31:35,42.805,6.029,CST-1368DR,6180,8662,15147,0.122,551
2020-06-18T07:34:36,42.805,6.029,CST-1368DR,6180,8663,15149,0.121,551
2020-06-18T07:37:38,42.805,6.029,CST-1368DR,6180,8662,15149,0.121,551
2020-06-18T07:40:40,42.805,6.029,CST-1368DR,6180,8662,15148,0.122,551
2020-06-18T07:43:41,42.805,6.029,CST-1368DR,6180,8662,15148,0.122,551
2020-06-18T07:46:43,42.805,6.029,CST-1368DR,6180,8663,15149,0.121,551
2020-06-18T07:49:45,42.805,6.029,CST-1368DR,6180,8662,15147,0.122,551
2020-06-18T07:52:46,42.805,6.029,CST-1368DR,6180,8662,15148,0.122,551
2020-06-18T07:55:48,42.805,6.029,CST-1368DR,6180,8662,15148,0.122,551
2020-06-18T07:58:50,42.805,6.029,CST-1368DR,6180,8662,15149,0.121,551
2020-06-18T08:01:52,42.805,6.029,CST-1368DR,6180,8662,15148,0.122,551
2020-06-18T08:04:53,42.805,6.029,CST-1368DR,6180,8661,15146,0.122,550
2020-06-18T08:07:55,42.805,6.029,CST-1368DR,6180,8662,15149,0.121,551
2020-06-18T08:10:57,42.805,6.029,CST-1368DR,6180,8662,15147,0.122,551
2020-06-18T08:13:58,42.805,6.029,CST-1368DR,6180,8662,15148,0.122,551
2020-06-18T08:17:00,42.805,6.029,CST-1368DR,6180,8662,15147,0.122,551
2020-06-18T08:20:02,42.805,6.029,CST-1368DR,6180,8662,15147,0.122,551
2020-06-18T08:23:03,42.805,6.029,CST-1368DR,6180,8661,15147,0.122,551
2020-06-18T08:26:05,42.805,6.029,CST-1368DR,6180,8660,15145,0.123,551
2020-06-18T08:29:07,42.805,6.029,CST-1368DR,6180,8661,15145,0.123,551
2020-06-18T08:32:09,42.805,6.029,CST-1368DR,6180,8662,15147,0.122,551
2020-06-18T08:35:10,42.805,6.029,CST-1368DR,6180,8661,15147,0.122,551
2020-06-18T08:38:12,42.805,6.029,CST-1368DR,6180,8662,15147,0.122,551
2020-06-18T08:41:14,42.805,6.029,CST-1368DR,6180,8661,15147,0.122,551
2020-06-18T08:44:15,42.805,6.029,CST-1368DR,6180,8661,15146,0.122,551
2020-06-18T08:47:17,42.805,6.029,CST-1368DR,6180,8661,15146,0.122,551
2020-06-18T08:50:19,42.805,6.029,CST-1368DR,6180,8660,15144,0.123,551
2020-06-18T08:53:20,42.805,6.029,CST-1368DR,6180,8661,15146,0.122,550
2020-06-18T08:56:22,42.805,6.029,CST-1368DR,6180,8660,15145,0.123,551
2020-06-18T08:59:24,42.805,6.029,CST-1368DR,6180,8661,15146,0.122,551
2020-06-18T09:02:25,42.805,6.029,CST-1368DR,6180,8661,15145,0.123,551
2020-06-18T09:05:27,42.805,6.029,CST-1368DR,6180,8661,15147,0.122,551
2020-06-18T09:08:29,42.805,6.029,CST-1368DR,6180,8662,15147,0.122,551
2020-06-18T09:11:31,42.805,6.029,CST-1368DR,6180,8661,15145,0.123,551
2020-06-18T09:14:32,42.805,6.029,CST-1368DR,6179,8660,15147,0.122,551
2020-06-18T09:17:34,42.805,6.029,CST-1368DR,6180,8662,15147,0.122,551
2020-06-18T09:20:36,42.805,6.029,CST-1368DR,6179,8661,15149,0.121,551
2020-06-18T09:23:37,42.805,6.029,CST-1368DR,6179,8661,15149,0.121,551
2020-06-18T09:26:39,42.805,6.029,CST-1368DR,6179,8661,15148,0.122,551
2020-06-18T09:29:41,42.805,6.029,CST-1368DR,6180,8661,15146,0.122,551
2020-06-18T09:32:43,42.805,6.029,CST-1368DR,6180,8660,15145,0.123,551
2020-06-18T09:35:44,42.805,6.029,CST-1368DR,6180,8660,15145,0.123,551
2020-06-18T09:38:46,42.805,6.029,CST-1368DR,6179,8662,15150,0.121,551
2020-06-18T09:41:48,42.805,6.029,CST-1368DR,6180,8660,15145,0.123,551
2020-06-18T09:44:49,42.805,6.029,CST-1368DR,6179,8660,15147,0.122,551
2020-06-18T09:47:51,42.805,6.029,CST-1368DR,6180,8660,15145,0.123,551
2020-06-18T09:50:53,42.805,6.029,CST-1368DR,6179,8661,15149,0.121,551
2020-06-18T09:53:54,42.805,6.029,CST-1368DR,6179,8660,15147,0.122,551
2020-06-18T09:56:56,42.805,6.029,CST-1368DR,6179,8661,15148,0.122,551
2020-06-18T09:59:58,42.805,6.029,CST-1368DR,6179,8661,15148,0.122,551
2020-06-18T10:03:00,42.805,6.029,CST-1368DR,6179,8661,15148,0.122,551
2020-06-18T10:06:01,42.805,6.029,CST-1368DR,6179,8661,15148,0.122,551
2020-06-18T10:09:03,42.805,6.029,CST-1368DR,6179,8661,15149,0.121,551
2020-06-18T10:12:05,42.805,6.029,CST-1368DR,6179,8660,15147,0.122,551
2020-06-18T10:15:07,42.805,6.029,CST-1368DR,6179,8660,15147,0.122,551
2020-06-18T10:18:08,42.805,6.029,CST-1368DR,6179,8659,15146,0.122,551
2020-06-18T10:21:10,42.805,6.029,CST-1368DR,6179,8659,15146,0.122,550
2020-06-18T10:24:12,42.805,6.029,CST-1368DR,6179,8650,15130,0.126,551
2020-06-18T10:27:13,42.805,6.029,CST-1368DR,6179,8661,15148,0.122,551
2020-06-18T10:30:15,42.805,6.029,CST-1368DR,6179,8661,15148,0.122,551
2020-06-18T10:33:17,42.805,6.029,CST-1368DR,6179,8659,15145,0.123,551
2020-06-18T10:36:18,42.805,6.029,CST-1368DR,6179,8660,15147,0.122,551
2020-06-18T10:39:20,42.805,6.029,CST-1368DR,6179,8660,15146,0.122,551
2020-06-18T10:42:22,42.805,6.029,CST-1368DR,6179,8660,15146,0.122,551
2020-06-18T10:45:24,42.805,6.029,CST-1368DR,6179,8659,15145,0.123,551
2020-06-18T10:48:25,42.805,6.029,CST-1368DR,6179,8658,15143,0.123,551
2020-06-18T10:51:27,42.805,6.029,CST-1368DR,6179,8660,15147,0.122,551
2020-06-18T10:54:29,42.805,6.029,CST-1368DR,6179,8658,15143,0.123,551
2020-06-18T10:57:30,42.805,6.029,CST-1368DR,6179,8660,15147,0.122,551
2020-06-18T11:00:32,42.805,6.029,CST-1368DR,6179,8660,15146,0.122,551
2020-06-18T11:03:34,42.805,6.029,CST-1368DR,6179,8661,15149,0.121,551
2020-06-18T11:06:35,42.805,6.029,CST-1368DR,6179,8660,15147,0.122,551
2020-06-18T11:09:37,42.805,6.029,CST-1368DR,6179,8661,15148,0.122,551
2020-06-18T11:12:39,42.805,6.029,CST-1368DR,6179,8660,15147,0.122,551
2020-06-18T11:15:40,42.805,6.029,CST-1368DR,6179,8659,15144,0.123,551
2020-06-18T11:18:42,42.805,6.029,CST-1368DR,6179,8659,15145,0.123,551
2020-06-18T11:21:44,42.805,6.029,CST-1368DR,6179,8659,15146,0.122,551
2020-06-18T11:24:46,42.805,6.029,CST-1368DR,6179,8659,15146,0.122,551
2020-06-18T11:27:48,42.805,6.029,CST-1368DR,6179,8660,15147,0.122,551
2020-06-18T11:30:49,42.805,6.029,CST-1368DR,6179,8660,15147,0.122,551
2020-06-18T11:33:51,42.805,6.029,CST-1368DR,6179,8659,15145,0.123,551
2020-06-18T11:36:53,42.805,6.029,CST-1368DR,6179,8659,15145,0.123,551
2020-06-18T11:39:54,42.805,6.029,CST-1368DR,6179,8660,15146,0.122,551
2020-06-18T11:42:56,42.805,6.029,CST-1368DR,6179,8659,15146,0.122,551
2020-06-18T11:45:58,42.805,6.029,CST-1368DR,6179,8659,15146,0.122,551
2020-06-18T11:48:59,42.805,6.029,CST-1368DR,6179,8660,15147,0.122,551
2020-06-18T11:52:01,42.805,6.029,CST-1368DR,6179,8659,15145,0.123,551
2020-06-18T11:55:03,42.805,6.029,CST-1368DR,6179,8659,15144,0.123,551
2020-06-18T11:58:04,42.805,6.029,CST-1368DR,6179,8659,15145,0.123,551
2020-06-18T12:01:06,42.805,6.029,CST-1368DR,6179,8659,15145,0.123,551
2020-06-18T12:04:08,42.805,6.029,CST-1368DR,6179,8661,15148,0.122,551
2020-06-18T12:07:10,42.805,6.029,CST-1368DR,6179,8660,15147,0.122,551
2020-06-18T12:10:11,42.805,6.029,CST-1368DR,6179,8660,15147,0.122,551
2020-06-18T12:13:13,42.805,6.029,CST-1368DR,6179,8661,15148,0.122,551
2020-06-18T12:16:15,42.805,6.029,CST-1368DR,6179,8660,15146,0.122,551
2020-06-18T12:19:16,42.805,6.029,CST-1368DR,6179,8660,15147,0.122,551
2020-06-18T12:22:18,42.805,6.029,CST-1368DR,6179,8660,15147,0.122,551
2020-06-18T12:25:20,42.805,6.029,CST-1368DR,6179,8660,15146,0.122,551
2020-06-18T12:28:21,42.805,6.029,CST-1368DR,6179,8659,15144,0.123,551
2020-06-18T12:31:23,42.805,6.029,CST-1368DR,6179,8660,15147,0.122,551
2020-06-18T12:34:25,42.805,6.029,CST-1368DR,6179,8659,15146,0.122,551
2020-06-18T12:37:27,42.805,6.029,CST-1368DR,6179,8660,15146,0.122,551
2020-06-18T12:40:28,42.805,6.029,CST-1368DR,6179,8660,15146,0.122,551
2020-06-18T12:43:30,42.805,6.029,CST-1368DR,6179,8659,15144,0.123,551
2020-06-18T12:46:32,42.805,6.029,CST-1368DR,6179,8659,15145,0.123,551
2020-06-18T12:49:34,42.805,6.029,CST-1368DR,6179,8658,15143,0.123,551
2020-06-18T12:52:35,42.805,6.029,CST-1368DR,6179,8660,15147,0.122,551
2020-06-18T12:55:37,42.805,6.029,CST-1368DR,6179,8659,15146,0.122,551
2020-06-18T12:58:38,42.805,6.029,CST-1368DR,6179,8659,15146,0.122,550
2020-06-18T13:01:40,42.805,6.029,CST-1368DR,6179,8659,15146,0.122,551
2020-06-18T13:04:42,42.805,6.029,CST-1368DR,6179,8659,15145,0.123,551
2020-06-18T13:07:44,42.805,6.029,CST-1368DR,6179,8659,15145,0.123,550
2020-06-18T13:10:45,42.805,6.029,CST-1368DR,6179,8660,15146,0.122,551
2020-06-18T13:13:47,42.805,6.029,CST-1368DR,6179,8659,15145,0.123,551
2020-06-18T13:16:49,42.805,6.029,CST-1368DR,6179,8659,15146,0.122,551
2020-06-18T13:19:50,42.805,6.029,CST-1368DR,6179,8660,15147,0.122,551
2020-06-18T13:22:52,42.805,6.029,CST-1368DR,6179,8659,15145,0.123,551
2020-06-18T13:25:54,42.805,6.029,CST-1368DR,6179,8659,15146,0.122,550
2020-06-18T13:28:55,42.805,6.029,CST-1368DR,6179,8660,15147,0.122,551
2020-06-18T13:31:57,42.805,6.029,CST-1368DR,6179,8660,15146,0.122,551
2020-06-18T13:34:59,42.805,6.029,CST-1368DR,6179,8658,15144,0.123,551
2020-06-18T13:38:00,42.805,6.029,CST-1368DR,6179,8660,15146,0.122,551
2020-06-18T13:41:02,42.805,6.029,CST-1368DR,6179,8660,15146,0.122,551
2020-06-18T13:44:04,42.805,6.029,CST-1368DR,6179,8659,15145,0.123,551
2020-06-18T13:47:05,42.805,6.029,CST-1368DR,6179,8659,15144,0.123,551
2020-06-18T13:50:07,42.805,6.029,CST-1368DR,6179,8658,15143,0.123,551
2020-06-18T13:53:09,42.805,6.029,CST-1368DR,6179,8659,15146,0.122,551
2020-06-18T13:56:10,42.805,6.029,CST-1368DR,6179,8659,15146,0.122,551
2020-06-18T13:59:12,42.805,6.029,CST-1368DR,6179,8657,15141,0.124,551
2020-06-18T14:02:14,42.805,6.029,CST-1368DR,6179,8659,15146,0.122,551
2020-06-18T14:05:16,42.805,6.029,CST-1368DR,6179,8658,15143,0.123,551
2020-06-18T14:08:17,42.805,6.029,CST-1368DR,6179,8658,15143,0.123,551
2020-06-18T14:11:19,42.805,6.029,CST-1368DR,6179,8659,15144,0.123,551
2020-06-18T14:14:21,42.805,6.029,CST-1368DR,6179,8659,15145,0.123,551
2020-06-18T14:17:22,42.805,6.029,CST-1368DR,6179,8659,15145,0.123,551
2020-06-18T14:20:24,42.805,6.029,CST-1368DR,6179,8659,15144,0.123,551
2020-06-18T14:23:26,42.805,6.029,CST-1368DR,6179,8659,15145,0.123,551
2020-06-18T14:26:27,42.805,6.029,CST-1368DR,6179,8659,15144,0.123,551
2020-06-18T14:29:29,42.805,6.029,CST-1368DR,6179,8659,15145,0.123,551
2020-06-18T14:32:31,42.805,6.029,CST-1368DR,6178,8659,15147,0.122,551
2020-06-18T14:35:33,42.805,6.029,CST-1368DR,6178,8658,15146,0.122,551
2020-06-18T14:38:34,42.805,6.029,CST-1368DR,6178,8658,15146,0.122,550
2020-06-18T14:41:36,42.805,6.029,CST-1368DR,6178,8659,15147,0.122,551
2020-06-18T14:44:38,42.805,6.029,CST-1368DR,6178,8658,15145,0.123,551
2020-06-18T14:47:39,42.805,6.029,CST-1368DR,6178,8657,15144,0.123,550
2020-06-18T14:50:41,42.805,6.029,CST-1368DR,6178,8659,15147,0.122,551
2020-06-18T14:53:43,42.805,6.029,CST-1368DR,6178,8658,15145,0.123,551
2020-06-18T14:56:44,42.805,6.029,CST-1368DR,6178,8659,15147,0.122,551
2020-06-18T14:59:46,42.805,6.029,CST-1368DR,6178,8658,15145,0.123,551
2020-06-18T15:02:48,42.805,6.029,CST-1368DR,6178,8658,15146,0.122,551
2020-06-18T15:05:49,42.805,6.029,CST-1368DR,6178,8658,15145,0.123,551
2020-06-18T15:08:51,42.805,6.029,CST-1368DR,6178,8658,15146,0.122,551
2020-06-18T15:11:53,42.805,6.029,CST-1368DR,6178,8659,15147,0.122,551
2020-06-18T15:14:54,42.805,6.029,CST-1368DR,6178,8659,15147,0.122,551
2020-06-18T15:17:56,42.805,6.029,CST-1368DR,6178,8657,15144,0.123,551
2020-06-18T15:20:58,42.805,6.029,CST-1368DR,6178,8658,15145,0.123,551
2020-06-18T15:23:59,42.805,6.029,CST-1368DR,6178,8659,15147,0.122,551
2020-06-18T15:27:01,42.805,6.029,CST-1368DR,6178,8659,15147,0.122,551
2020-06-18T15:30:03,42.805,6.029,CST-1368DR,6178,8659,15147,0.122,551
2020-06-18T15:33:04,42.805,6.029,CST-1368DR,6178,8659,15147,0.122,551
2020-06-18T15:36:06,42.805,6.029,CST-1368DR,6178,8659,15147,0.122,551
2020-06-18T15:39:08,42.805,6.029,CST-1368DR,6178,8658,15146,0.122,551
2020-06-18T15:42:09,42.805,6.029,CST-1368DR,6178,8659,15147,0.122,551
2020-06-18T15:45:11,42.805,6.029,CST-1368DR,6178,8658,15145,0.123,551
2020-06-18T15:48:13,42.805,6.029,CST-1368DR,6178,8658,15146,0.122,551
2020-06-18T15:51:14,42.805,6.029,CST-1368DR,6178,8659,15147,0.122,551
2020-06-18T15:54:16,42.805,6.029,CST-1368DR,6178,8659,15147,0.122,551
2020-06-18T15:57:18,42.805,6.029,CST-1368DR,6178,8658,15146,0.122,551
2020-06-18T16:00:19,42.805,6.029,CST-1368DR,6178,8658,15145,0.123,551
2020-06-18T16:03:21,42.805,6.029,CST-1368DR,6178,8657,15144,0.123,551
2020-06-18T16:06:23,42.805,6.029,CST-1368DR,6178,8658,15146,0.122,551
2020-06-18T16:09:25,42.805,6.029,CST-1368DR,6178,8658,15146,0.122,551
2020-06-18T16:12:26,42.805,6.029,CST-1368DR,6178,8658,15145,0.123,551
2020-06-18T16:15:28,42.805,6.029,CST-1368DR,6178,8657,15144,0.123,551
2020-06-18T16:18:29,42.805,6.029,CST-1368DR,6178,8658,15146,0.122,551
2020-06-18T16:21:31,42.805,6.029,CST-1368DR,6178,8657,15144,0.123,551
2020-06-18T16:24:33,42.805,6.029,CST-1368DR,6178,8659,15147,0.122,551
2020-06-18T16:27:34,42.805,6.029,CST-1368DR,6178,8659,15147,0.122,550
2020-06-18T16:30:36,42.805,6.029,CST-1368DR,6178,8658,15146,0.122,551
2020-06-18T16:33:38,42.805,6.029,CST-1368DR,6178,8658,15146,0.122,551
2020-06-18T16:36:40,42.805,6.029,CST-1368DR,6178,8658,15146,0.122,551
2020-06-18T16:39:42,42.805,6.029,CST-1368DR,6178,8658,15145,0.123,551
2020-06-18T16:42:43,42.805,6.029,CST-1368DR,6178,8657,15144,0.123,551
2020-06-18T16:45:45,42.805,6.029,CST-1368DR,6178,8658,15145,0.123,551
2020-06-18T16:48:47,42.805,6.029,CST-1368DR,6178,8658,15146,0.122,551
2020-06-18T16:51:48,42.805,6.029,CST-1368DR,6178,8659,15147,0.122,551
2020-06-18T16:54:50,42.805,6.029,CST-1368DR,6178,8659,15147,0.122,551
2020-06-18T16:57:52,42.805,6.029,CST-1368DR,6178,8659,15147,0.122,551
2020-06-18T17:00:53,42.805,6.029,CST-1368DR,6178,8658,15146,0.122,551
2020-06-18T17:03:55,42.805,6.029,CST-1368DR,6178,8658,15145,0.123,551
2020-06-18T17:06:57,42.805,6.029,CST-1368DR,6178,8658,15146,0.122,551
2020-06-18T17:09:58,42.805,6.029,CST-1368DR,6178,8656,15142,0.123,551
2020-06-18T17:13:00,42.805,6.029,CST-1368DR,6178,8658,15146,0.122,551
2020-06-18T17:16:02,42.805,6.029,CST-1368DR,6178,8658,15145,0.123,551
2020-06-18T17:19:03,42.805,6.029,CST-1368DR,6178,8658,15146,0.122,551
2020-06-18T17:22:05,42.805,6.029,CST-1368DR,6178,8658,15146,0.122,551
2020-06-18T17:25:07,42.805,6.029,CST-1368DR,6178,8658,15145,0.123,551
2020-06-18T17:28:08,42.805,6.029,CST-1368DR,6178,8659,15147,0.122,551
2020-06-18T17:31:10,42.805,6.029,CST-1368DR,6178,8658,15145,0.123,551
2020-06-18T17:34:12,42.805,6.029,CST-1368DR,6178,8658,15146,0.122,551
2020-06-18T17:37:13,42.805,6.029,CST-1368DR,6178,8658,15146,0.122,551
2020-06-18T17:40:15,42.805,6.029,CST-1368DR,6178,8659,15147,0.122,551
2020-06-18T17:43:17,42.805,6.029,CST-1368DR,6178,8658,15145,0.123,551
2020-06-18T17:46:18,42.805,6.029,CST-1368DR,6178,8658,15146,0.122,551
2020-06-18T17:49:20,42.805,6.029,CST-1368DR,6178,8658,15146,0.122,551
2020-06-18T17:52:22,42.805,6.029,CST-1368DR,6178,8658,15146,0.122,551
2020-06-18T17:55:23,42.805,6.029,CST-1368DR,6178,8658,15145,0.123,551